Location: *
(49.9853°N, 3.5569°E)
Time: 12:24:33
(UTC+00:00)

Cosmos 405 Rocket - Pass Details

Date: 18 December 2019
Orbit: 490 x 555 km, 81.3° (Epoch: 17 January)

Event Time Altitude Azimuth Distance (km) Brightness Sun altitude
Rises 06:15:03 0° 165° (SSE) 2,606 6.8 -12.7°
Reaches altitude 10° 06:17:22 10° 154° (SSE) 1,715 6.1 -12.3°
Maximum altitude 06:20:39 29° 93° (E) 936 4.8 -11.8°
Drops below altitude 10° 06:23:55 10° 32° (NNE) 1,705 5.4 -11.4°
Sets 06:26:12 0° 21° (NNE) 2,588 6.2 -11.0°
